Hourly Weather Kivsharivka

Today, 24 October, Saturday

Time Temperature Precipitation Wind Pressure Humidity
00:00 +15°C° 0 mm 4 mps 750 mmHg 74%
01:00 +14°C° 0 mm 4 mps 750 mmHg 77%
02:00 +14°C° 0 mm 4 mps 750 mmHg 80%
03:00 +14°C° 0 mm 4 mps 750 mmHg 82%
04:00 +13°C° 0 mm 3 mps 750 mmHg 81%
05:00 +13°C° 0 mm 3 mps 750 mmHg 81%
06:00 +13°C° 0 mm 3 mps 749 mmHg 80%
07:00 +13°C° 0 mm 3 mps 750 mmHg 76%
08:00 +14°C° 0 mm 3 mps 750 mmHg 72%
09:00 +14°C° 0 mm 3 mps 751 mmHg 68%
10:00 +14°C° 0 mm 3 mps 750 mmHg 67%
11:00 +16°C° 0 mm 3 mps 750 mmHg 66%
12:00 +16°C° 0 mm 3 mps 750 mmHg 65%
13:00 +16°C° 0 mm 2 mps 750 mmHg 66%
14:00 +16°C° 0 mm 2 mps 750 mmHg 66%
15:00 +16°C° 0 mm 1 mps 750 mmHg 67%
16:00 +15°C° 0 mm 1 mps 750 mmHg 69%
17:00 +15°C° 0 mm 1 mps 750 mmHg 71%
18:00 +15°C° 0 mm 1 mps 750 mmHg 73%
19:00 +15°C° 0 mm 1 mps 750 mmHg 73%
20:00 +15°C° 0 mm 1 mps 750 mmHg 74%
21:00 +14°C° 0 mm 1 mps 750 mmHg 75%
22:00 +14°C° 0 mm 2 mps 749 mmHg 78%
23:00 +13°C° 0 mm 2 mps 749 mmHg 81%

Tomorrow, 25 October, Sunday

Time Temperature Precipitation Wind Pressure Humidity
00:00 +13°C° 0 mm 2 mps 749 mmHg 84%
01:00 +12°C° 0 mm 2 mps 749 mmHg 83%
02:00 +12°C° 0 mm 2 mps 749 mmHg 82%
03:00 +11°C° 0 mm 3 mps 749 mmHg 80%
04:00 +10°C° 0 mm 3 mps 749 mmHg 81%
05:00 +10°C° 0 mm 3 mps 750 mmHg 81%
06:00 +10°C° 0 mm 3 mps 750 mmHg 82%
07:00 +11°C° 0 mm 4 mps 750 mmHg 81%
08:00 +11°C° 0 mm 4 mps 751 mmHg 81%
09:00 +12°C° 0 mm 5 mps 751 mmHg 81%
10:00 +13°C° 0 mm 5 mps 751 mmHg 76%
11:00 +14°C° 0 mm 5 mps 752 mmHg 71%
12:00 +15°C° 0 mm 5 mps 752 mmHg 66%
13:00 +15°C° 0 mm 4 mps 752 mmHg 62%
14:00 +17°C° 0 mm 4 mps 753 mmHg 58%
15:00 +17°C° 0 mm 4 mps 753 mmHg 54%
16:00 +16°C° 0 mm 3 mps 753 mmHg 58%
17:00 +13°C° 0 mm 3 mps 753 mmHg 63%
18:00 +13°C° 0 mm 2 mps 753 mmHg 67%
19:00 +12°C° 0 mm 2 mps 754 mmHg 70%
20:00 +12°C° 0 mm 2 mps 755 mmHg 72%
21:00 +11°C° 0 mm 1 mps 755 mmHg 75%
22:00 +11°C° 0 mm 1 mps 755 mmHg 77%
23:00 +10°C° 0 mm 1 mps 756 mmHg 79%

Day after tomorrow, 26 October, Monday

Time Temperature Precipitation Wind Pressure Humidity
00:00 +10°C° 0 mm 1 mps 756 mmHg 81%
01:00 +10°C° 0 mm 1 mps 756 mmHg 83%
02:00 +9°C° 0 mm 1 mps 756 mmHg 84%
03:00 +9°C° 0 mm 1 mps 756 mmHg 86%
04:00 +9°C° 0 mm 1 mps 757 mmHg 86%
05:00 +9°C° 0 mm 1 mps 757 mmHg 87%
06:00 +8°C° 0 mm 1 mps 757 mmHg 88%
07:00 +8°C° 0 mm 2 mps 757 mmHg 84%
08:00 +9°C° 0 mm 2 mps 757 mmHg 80%
09:00 +10°C° 0 mm 2 mps 757 mmHg 77%
10:00 +12°C° 0 mm 2 mps 758 mmHg 70%
11:00 +13°C° 0 mm 2 mps 758 mmHg 63%
12:00 +15°C° 0 mm 2 mps 758 mmHg 56%
13:00 +14°C° 0 mm 3 mps 757 mmHg 55%
14:00 +14°C° 0 mm 3 mps 757 mmHg 53%
15:00 +16°C° 0 mm 3 mps 757 mmHg 52%
16:00 +13°C° 0 mm 3 mps 757 mmHg 57%
17:00 +12°C° 0 mm 3 mps 757 mmHg 62%
18:00 +11°C° 0 mm 3 mps 757 mmHg 67%
19:00 +11°C° 0 mm 3 mps 757 mmHg 68%
20:00 +10°C° 0 mm 3 mps 757 mmHg 70%
21:00 +10°C° 0 mm 3 mps 758 mmHg 72%
22:00 +10°C° 0 mm 3 mps 758 mmHg 72%
23:00 +9°C° 0 mm 3 mps 758 mmHg 73%

, 27 October, Tuesday

Time Temperature Precipitation Wind Pressure Humidity
00:00 +9°C° 0 mm 3 mps 758 mmHg 73%
01:00 +9°C° 0 mm 3 mps 758 mmHg 73%
02:00 +9°C° 0 mm 3 mps 758 mmHg 74%
03:00 +7°C° 0 mm 4 mps 758 mmHg 74%
04:00 +8°C° 0 mm 3 mps 758 mmHg 74%
05:00 +8°C° 0 mm 3 mps 758 mmHg 73%
06:00 +8°C° 0 mm 3 mps 758 mmHg 73%
07:00 +7°C° 0 mm 4 mps 758 mmHg 70%
08:00 +8°C° 0 mm 4 mps 758 mmHg 67%
09:00 +8°C° 0 mm 5 mps 758 mmHg 65%
10:00 +9°C° 0 mm 5 mps 759 mmHg 60%
11:00 +12°C° 0 mm 5 mps 759 mmHg 55%
12:00 +13°C° 0 mm 5 mps 759 mmHg 50%
13:00 +13°C° 0 mm 5 mps 759 mmHg 49%
14:00 +14°C° 0 mm 5 mps 759 mmHg 47%
15:00 +14°C° 0 mm 5 mps 758 mmHg 45%
16:00 +13°C° 0 mm 5 mps 759 mmHg 49%
17:00 +12°C° 0 mm 4 mps 759 mmHg 53%
18:00 +11°C° 0 mm 4 mps 759 mmHg 57%
19:00 +10°C° 0 mm 4 mps 759 mmHg 57%
20:00 +10°C° 0 mm 4 mps 759 mmHg 57%
21:00 +9°C° 0 mm 5 mps 759 mmHg 57%
22:00 +8°C° 0 mm 4 mps 759 mmHg 59%
23:00 +7°C° 0 mm 4 mps 759 mmHg 61%

27 October, Tuesday

Time Temperature Precipitation Wind Pressure Humidity
00:00 +9°C° 0 mm 3 mps 758 mmHg 73%
01:00 +9°C° 0 mm 3 mps 758 mmHg 73%
02:00 +9°C° 0 mm 3 mps 758 mmHg 74%
03:00 +7°C° 0 mm 4 mps 758 mmHg 74%
04:00 +8°C° 0 mm 3 mps 758 mmHg 74%
05:00 +8°C° 0 mm 3 mps 758 mmHg 73%
06:00 +8°C° 0 mm 3 mps 758 mmHg 73%
07:00 +7°C° 0 mm 4 mps 758 mmHg 70%
08:00 +8°C° 0 mm 4 mps 758 mmHg 67%
09:00 +8°C° 0 mm 5 mps 758 mmHg 65%
10:00 +9°C° 0 mm 5 mps 759 mmHg 60%
11:00 +12°C° 0 mm 5 mps 759 mmHg 55%
12:00 +13°C° 0 mm 5 mps 759 mmHg 50%
13:00 +13°C° 0 mm 5 mps 759 mmHg 49%
14:00 +14°C° 0 mm 5 mps 759 mmHg 47%
15:00 +14°C° 0 mm 5 mps 758 mmHg 45%
16:00 +13°C° 0 mm 5 mps 759 mmHg 49%
17:00 +12°C° 0 mm 4 mps 759 mmHg 53%
18:00 +11°C° 0 mm 4 mps 759 mmHg 57%
19:00 +10°C° 0 mm 4 mps 759 mmHg 57%
20:00 +10°C° 0 mm 4 mps 759 mmHg 57%
21:00 +9°C° 0 mm 5 mps 759 mmHg 57%
22:00 +8°C° 0 mm 4 mps 759 mmHg 59%
23:00 +7°C° 0 mm 4 mps 759 mmHg 61%

28 October, Wednesday

Time Temperature Precipitation Wind Pressure Humidity
00:00 +7°C° 0 mm 4 mps 759 mmHg 64%
01:00 +6°C° 0 mm 4 mps 759 mmHg 66%
02:00 +6°C° 0 mm 5 mps 759 mmHg 69%
03:00 +6°C° 0 mm 5 mps 759 mmHg 72%
04:00 +5°C° 0 mm 5 mps 759 mmHg 74%
05:00 +5°C° 0 mm 5 mps 759 mmHg 76%
06:00 +3°C° 0 mm 5 mps 760 mmHg 78%
07:00 +5°C° 0 mm 5 mps 760 mmHg 75%
08:00 +4°C° 0 mm 6 mps 760 mmHg 71%
09:00 +5°C° 0 mm 6 mps 760 mmHg 68%
10:00 +7°C° 0 mm 6 mps 760 mmHg 60%
11:00 +9°C° 0 mm 7 mps 759 mmHg 53%
12:00 +10°C° 0 mm 7 mps 759 mmHg 45%
13:00 +11°C° 0 mm 7 mps 759 mmHg 41%
14:00 +12°C° 0 mm 7 mps 759 mmHg 37%
15:00 +12°C° 0 mm 7 mps 759 mmHg 33%
16:00 +11°C° 0 mm 6 mps 759 mmHg 32%
17:00 +10°C° 0 mm 6 mps 759 mmHg 31%
18:00 +9°C° 0 mm 5 mps 759 mmHg 30%
19:00 +8°C° 0 mm 5 mps 759 mmHg 31%
20:00 +8°C° 0 mm 5 mps 759 mmHg 32%
21:00 +7°C° 0 mm 6 mps 759 mmHg 33%
22:00 +6°C° 0 mm 5 mps 759 mmHg 35%
23:00 +6°C° 0 mm 5 mps 759 mmHg 37%

29 October, Thursday

Time Temperature Precipitation Wind Pressure Humidity
00:00 +5°C° 0 mm 5 mps 759 mmHg 40%
01:00 +5°C° 0 mm 5 mps 758 mmHg 42%
02:00 +5°C° 0 mm 5 mps 758 mmHg 45%
03:00 +3°C° 0 mm 5 mps 758 mmHg 48%
04:00 +3°C° 0 mm 5 mps 758 mmHg 51%
05:00 +3°C° 0 mm 5 mps 758 mmHg 54%
06:00 +3°C° 0 mm 5 mps 758 mmHg 57%
07:00 +4°C° 0 mm 6 mps 758 mmHg 59%
08:00 +4°C° 0 mm 6 mps 758 mmHg 62%
09:00 +4°C° 0 mm 6 mps 757 mmHg 64%
10:00 +7°C° 0 mm 6 mps 757 mmHg 62%
11:00 +8°C° 0 mm 6 mps 757 mmHg 59%
12:00 +9°C° 0 mm 6 mps 757 mmHg 56%
13:00 +10°C° 0 mm 6 mps 757 mmHg 55%
14:00 +10°C° 0 mm 6 mps 756 mmHg 54%
15:00 +12°C° 0 mm 5 mps 756 mmHg 53%
16:00 +10°C° 0 mm 5 mps 756 mmHg 56%
17:00 +10°C° 0 mm 4 mps 756 mmHg 59%
18:00 +10°C° 0 mm 3 mps 756 mmHg 61%
19:00 +10°C° 0 mm 3 mps 756 mmHg 62%
20:00 +8°C° 0 mm 4 mps 756 mmHg 62%
21:00 +8°C° 0 mm 4 mps 756 mmHg 63%
22:00 +8°C° 0 mm 4 mps 756 mmHg 63%
23:00 +8°C° 0 mm 3 mps 756 mmHg 63%
Show more